Regional Weather Roundup
Issued by NWS

Home | Current Version | Previous Version | Text Only | Print | Product List | Glossary Off
Versions: 1 2 3 4 5 6 7 8 9 10 11 12 13 14 15 16 17 18 19 20 21 22 23 24 25 26 27 28 29 30 31 32 33 34 35 36 37 38 39 40 41 42 43 44 45 46 47 48 49 50

000
ASUS43 KDTX 272301
RWRMI
MICHIGAN HOURLY REGIONAL WEATHER ROUNDUP
NATIONAL WEATHER SERVICE DETROIT/PONTIAC MI
700 PM EDT SAT AUG 27 2016

NOTE: "FAIR" INDICATES FEW OR NO CLOUDS BELOW 12,000 FEET WITH NO
SIGNIFICANT WEATHER AND/OR OBSTRUCTION TO VISIBILITY.

MIZ047>049-052>055-059>063-066>070-074>076-081>083-280000-
SOUTHEAST LOWER MICHIGAN

CITY           SKY/WX    TMP DP  RH WIND       PRES   REMARKS
ADRIAN         CLOUDY    74  72  93 S7        30.10S
ALMA           CLOUDY    74  71  91 SE3       30.08S
ANN ARBOR      CLOUDY    73  71  93 E5        30.09F
CARO           MOSUNNY   72  70  92 SE8       30.07S
DETROIT CITY   CLOUDY    73  72  96 SE5       30.09F
DETROIT        CLOUDY    73  71  93 E5        30.09F
FLINT          CLOUDY    77  70  79 SE12      30.08S
GROSSE ILE     CLOUDY    72  70  93 CALM      30.08F
HILLSDALE      MOSUNNY   77  71  82 SE6       30.10S
HOWELL         CLOUDY    73  71  92 S7        30.09S

CITY           SKY/WX    TMP DP  RH WIND       PRES   REMARKS
JACKSON        CLOUDY    76  72  87 SE8       30.08F
LAMBERTVILLE   CLOUDY    75  72  90 E5        30.09F
LANSING        CLOUDY    77  69  76 S8        30.08S
LAPEER         FAIR      70  68  93 SE6       30.08F
MASON          CLOUDY    75  70  83 S9        30.08S
MONROE         CLOUDY    73  72  95 E9        30.08F
PONTIAC        CLOUDY    72  69  90 SE8       30.09S
PORT HURON     CLOUDY    70  68  94 SE7       30.10F
TRI CITIES     CLOUDY    74  71  91 S8        30.07S
MIDLAND        CLOUDY    74  70  86 CALM      30.06F
TROY           CLOUDY    73  70  90 CALM      30.11F
SAGINAW HB     CLOUDY    73  70  88 SE7       30.06F
$$
MIZ043>046-050>051-056>058-064>065-071>073-077>080-280000-
SOUTHWEST LOWER MICHIGAN

CITY           SKY/WX    TMP DP  RH WIND       PRES   REMARKS
BATTLE CREEK   CLOUDY    77  73  87 S8        30.08S
BENTON HARBOR  PTSUNNY   82  72  71 VRB3      30.02F
BIG RAPIDS     CLOUDY    75  69  81 SE8       30.05S
COLDWATER      CLOUDY    79  72  79 S5        30.08S
FREMONT        PTSUNNY   76  70  83 S3        30.04S
HOLLAND        SUNNY     80  69  69 S9        30.05S
GRAND RAPIDS   PTSUNNY   78  69  73 S3        30.06S
IONIA          FAIR      75  67  75 S3        30.06F
KALAMAZOO      CLOUDY    80  70  71 S7        30.06S
LUDINGTON      CLOUDY    74  70  87 S6        30.02S
MARSHALL       PTSUNNY   79  73  83 CALM      30.08R
MOUNT PLEASANT CLOUDY    74  69  85 SE6       30.06F
MUSKEGON       PTSUNNY   77  70  79 S7        30.04R
SOUTH HAVEN    MOSUNNY   83  73  73 S3        30.03F
$$
MIZ016>042-280000-
NORTHERN LOWER MICHIGAN

CITY           SKY/WX    TMP DP  RH WIND       PRES   REMARKS
ALPENA         CLOUDY    70  66  87 SE8       30.10S
BEAVER ISLAND  DRIZZLE   64  63  99 E5        30.05F
BELLAIRE       CLOUDY    73  65  78 S5        30.04S
CADILLAC       CLOUDY    71  66  84 SE6       30.06F
CHARLEVOIX     CLOUDY    70  65  85 SE6       30.06F
FRANKFORT      CLOUDY    73  68  83 CALM      30.02S
GAYLORD        CLOUDY    68  63  84 SE8       30.09S
GRAYLING       CLOUDY    69  66  91 SE7       30.09S
HARBOR SPRINGS CLOUDY    67  65  92 E6        30.06S
HOUGHTON LAKE  CLOUDY    70  66  87 SE7       30.09S
MANISTEE       LGT RAIN  72  69  90 S3        30.02S
OSCODA         CLOUDY    71  65  80 SE6       30.08S
PELLSTON       LGT RAIN  67  62  84 SE8       30.06S
ROGERS CITY    CLOUDY    69  64  85 SE6       30.10S
TRAVERSE CITY  CLOUDY    75  67  76 CALM      30.02S
$$
MIZ007>008-015-280000-
EASTERN UPPER MICHIGAN

CITY           SKY/WX    TMP DP  RH WIND       PRES   REMARKS
KINROSS        RAIN      62  61  96 E8        30.09S FOG
MACKINAC ISLAN RAIN      65  65 100 E8        30.07S
NEWBERRY       CLOUDY    62  62  97 E6        30.07F FOG
S. S. MARIE    RAIN      63  62  97 E7        30.09S FOG
$$
MIZ004>006-011>014-085-280000-
CENTRAL UPPER MICHIGAN

CITY           SKY/WX    TMP DP  RH WIND       PRES   REMARKS
MANISTIQUE     CLOUDY    64  61  91 E5        30.05S FOG
ESCANABA       CLOUDY    65  61  87 SE5       30.05S
MENOMINEE      CLOUDY   N/A N/A N/A NE5       30.05R
SAWYER-GWINN   CLOUDY    64  59  82 CALM      30.06S
$$
MIZ001>003-009>011-084-280000-
WESTERN UPPER MICHIGAN

CITY           SKY/WX    TMP DP  RH WIND       PRES   REMARKS
IRON MOUNTAIN  CLOUDY    65  58  78 S5        30.05R
HOUGHTON       CLOUDY    64  58  80 E9        30.04F
IRONWOOD       LGT RAIN  64  61  90 N3        30.03S
$$

ABBREVIATIONS USED IN REMARKS
   TC - TEMPERATURE IN CELSIUS
  WCI - WIND CHILL INDEX
   HX - HEAT INDEX
  VSB - VISIBILITY





USA.gov is the U.S. government's official web portal to all federal, state and local government web resources and services.